Weather History for Ellensburg, WA

Change the Weather History Date:

Wednesday, June 4, 2014

  Actual Average (KYKM) Record (KYKM)
Temperature  
Mean Temperature 66 °F 62 °F  
Max Temperature 80 °F 77 °F 95 °F (1949)
Min Temperature 54 °F 47 °F 33 °F (1962)
Degree Days  
Heating Degree Days 0 5  
Month to date heating degree days 20  
Since 1 June heating degree days 20  
Since 1 July heating degree days 5964  
Cooling Degree Days 2 1  
Month to date cooling degree days 4  
Year to date cooling degree days 24  
Since 1 June cooling degree days 4  
Growing Degree Days 16 (Base 50)    
Moisture  
Dew Point 40 °F    
Average Humidity 43    
Maximum Humidity 64    
Minimum Humidity 21    
Precipitation  
Precipitation 0.00 in 0.03 in 0.81 in (1951)
Month to date precipitation 0.10  
Year to date precipitation 3.77  
Snow  
Snow 0.00 in 0.00 in 0.00 in (2002)
Month to date snowfall 0.0  
Year to date snowfall 8.6  
Since 1 July snowfall 21.6  
Snow Depth -    
Sea Level Pressure  
Sea Level Pressure 29.96 in    
Wind  
Wind Speed 19 mph (NW)    
Max Wind Speed 31 mph    
Max Gust Speed 39 mph    
Visibility 10 miles    
Events      
T = Trace of Precipitation, MM = Missing Value Source: NWS Daily Summary

Daily Weather History Graph

Daily Weather History Graph

Search for Another Location

Airport:

Trip Planner

Search our weather history database for the weather conditions in past years. The results will help you decide how hot, cold, wet, or windy it might be!

Date:

Astronomy

Jun. 04, 2014 Rise Set
Actual Time 5:09 AM PDT 8:52 PM PDT
Civil Twilight 4:30 AM PDT 9:31 PM PDT
Nautical Twilight 3:37 AM PDT 10:24 PM PDT
Astronomical Twilight 2:24 AM PDT 11:38 PM PDT
Moon 11:51 AM PDT (6/4) 12:36 AM PDT (6/4)
Length of Visible Light 17h 01m
Length of Day
15h 43m
Waxing Crescent, 40% of the Moon is Illuminated
Jun 4
Waxing Crescent
Jun 5
First Quarter
Jun 12
Full
Jun 19
Last Quarter
Jun 27
New

Hourly Weather History & Observations

Time (PDT) Temp. Dew Point Humidity Pressure Visibility Wind Dir Wind Speed Gust Speed Precip Events Conditions
12:53 AM 57.0 °F 44.1 °F 62% 29.97 in 10.0 mi NW 18.4 mph 27.6 mph N/A   Clear
1:53 AM 55.9 °F 44.1 °F 64% 29.96 in 10.0 mi NW 19.6 mph 28.8 mph N/A   Clear
2:53 AM 55.0 °F 43.0 °F 64% 29.97 in 10.0 mi NW 17.3 mph - N/A   Clear
3:53 AM 55.0 °F 43.0 °F 64% 29.98 in 10.0 mi NW 16.1 mph - N/A   Clear
4:53 AM 54.0 °F 42.1 °F 64% 29.98 in 10.0 mi NW 13.8 mph - N/A   Clear
5:53 AM 54.0 °F 42.1 °F 64% 29.99 in 10.0 mi NW 11.5 mph - N/A   Clear
6:53 AM 57.9 °F 42.1 °F 56% 30.00 in 10.0 mi NW 17.3 mph - N/A   Clear
8:53 AM 66.0 °F 43.0 °F 43% 30.01 in 10.0 mi NW 15.0 mph 23.0 mph N/A   Clear
9:53 AM 70.0 °F 42.1 °F 36% 29.99 in 10.0 mi NW 16.1 mph - N/A   Clear
10:53 AM 75.0 °F 42.1 °F 31% 29.98 in 10.0 mi NNW 12.7 mph - N/A   Clear
11:53 AM 77.0 °F 41.0 °F 28% 29.96 in 10.0 mi NW 18.4 mph - N/A   Clear
12:53 PM 78.1 °F 41.0 °F 27% 29.94 in 10.0 mi NW 23.0 mph 28.8 mph N/A   Clear
1:53 PM 79.0 °F 39.0 °F 24% 29.93 in 10.0 mi NW 25.3 mph 32.2 mph N/A   Clear
2:53 PM 79.0 °F 39.0 °F 24% 29.92 in 10.0 mi NW 24.2 mph 35.7 mph N/A   Clear
3:53 PM 78.1 °F 35.1 °F 21% 29.91 in 10.0 mi NW 26.5 mph 36.8 mph N/A   Clear
4:53 PM 77.0 °F 37.9 °F 24% 29.91 in 10.0 mi NW 26.5 mph 38.0 mph N/A   Clear
5:53 PM 75.0 °F 35.1 °F 23% 29.91 in 10.0 mi NW 26.5 mph 39.1 mph N/A   Clear
6:53 PM 71.1 °F 30.9 °F 23% 29.93 in 10.0 mi NW 31.1 mph 38.0 mph N/A   Clear
8:53 PM 62.1 °F 37.9 °F 41% 29.96 in 10.0 mi WNW 18.4 mph 26.5 mph N/A   Clear
9:53 PM 60.1 °F 39.9 °F 47% 29.96 in 10.0 mi WNW 20.7 mph 32.2 mph N/A   Clear
10:53 PM 60.1 °F 43.0 °F 53% 29.96 in 10.0 mi NW 21.9 mph 32.2 mph N/A   Clear
11:53 PM 59.0 °F 43.0 °F 55% 29.96 in 10.0 mi WNW 18.4 mph 29.9 mph N/A   Clear